Location: Gila Cliff Dwellings National Monument
(33.2240°N, 108.2417°W)
Time: 10:06:44
(UTC-06:00)

Cosmos 2322 Rocket - Visible Passes

Search period start: 23 July 2014 00:00
Search period end: 02 August 2014 00:00
Orbit: 834 x 850 km, 71.0° (Epoch: 23 July)

Date Brightness Start Highest point End Pass type
(mag) Time Alt. Az. Time Alt. Az. Time Alt. Az.
23 Jul 3.5 21:07:12 10° N 21:11:40 24° ENE 21:15:15 13° ESE visible
23 Jul 3.1 22:50:37 10° NW 22:55:46 39° WSW 22:57:05 34° SW visible
24 Jul 3.6 20:52:22 10° N 20:56:44 23° ENE 21:00:59 10° ESE visible
24 Jul 3.1 22:35:40 10° NW 22:40:53 41° WSW 22:42:50 31° SSW visible
25 Jul 3.6 20:37:33 10° N 20:41:48 22° ENE 20:46:01 10° ESE visible
25 Jul 3.0 22:20:43 10° NW 22:25:59 44° WSW 22:28:38 26° SSW visible
26 Jul 3.0 22:05:46 10° NW 22:11:05 46° WSW 22:14:29 21° SSW visible
27 Jul 2.9 21:50:49 10° NNW 21:56:12 49° WSW 22:00:25 16° S visible
28 Jul 2.9 21:35:53 10° NNW 21:41:18 52° WSW 21:46:25 12° S visible
29 Jul 2.8 21:20:56 10° NNW 21:26:24 55° WSW 21:31:51 10° S visible
30 Jul 2.7 21:06:00 10° NNW 21:11:30 59° WSW 21:17:00 10° S visible
31 Jul 2.7 20:51:05 10° NNW 20:56:36 62° WSW 21:02:07 10° S visible
01 Aug 2.6 20:36:09 10° NNW 20:41:42 66° WSW 20:47:15 10° S visible
